User: anonymous   Login
Location: Unspecified
(0.0000°N, 0.0000°E)
Time: 20:03:00
(UTC+00:00)
Language:

STARLINK-31242 - Orbit

View from above orbital plane
View from above orbital plane
View from above satellite
View from above satellite

Ground track
Ground track

The orbit is defined by the following mean orbital elements,

1 58864U          26145.52687008 +.00000000 +00000-0 +96864-6 0 00007
2 58864  43.0020 174.9909 0001110 275.3420  84.7305 15.27578522    08
Epoch (UTC): 25 May 2026 12:38:41
Eccentricity: 0.0001110
inclination: 43.0020°
perigee height: 482 km
apogee height: 484 km
right ascension of ascending node: 174.9909°
argument of perigee: 275.3420°
revolutions per day: 15.27578522
mean anomaly at epoch: 84.7305°

The dashed part of the orbit path shows where the satellite is in the earth's shadow,  

DLR